Location: Zapote
(9.9191°N, 84.0597°W)
Time: 16:50:40
(UTC-06:00)

Transit 2A - Pass Details

Date: 08 March 2021
Orbit: 602 x 957 km, 66.7° (Epoch: 16 April)

Event Time Altitude Azimuth Distance (km) Brightness Sun altitude
Rises 03:00:06 0° 343° (NNW) 2,862 - -41.9°
Reaches altitude 10° 03:02:18 10° 346° (NNW) 1,981 - -41.3°
Maximum altitude 03:06:43 70° 70° (ENE) 690 - -40.3°
Drops below altitude 10° 03:11:30 10° 154° (SSE) 2,142 - -39.1°
Exits shadow 03:13:38 - 156° (SSE) 2,986 9.3 -38.6°
Sets 03:13:57 0° 156° (SSE) 3,116 9.4 -38.5°
